Regional Weather Roundup
Issued by NWS

Home | Current Version | Previous Version | Graphics & Text | Print | Product List | Glossary On
Versions: 1 2 3 4 5 6 7 8 9 10 11 12 13 14 15 16 17 18 19 20 21 22 23 24 25 26 27 28 29 30 31 32 33 34 35 36 37 38 39 40 41 42 43 44 45 46 47 48 49 50
000
ASUS43 KLOT 240109
RWRIL

ILLINOIS REGIONAL WEATHER ROUNDUP
NATIONAL WEATHER SERVICE CHICAGO/ROMEOVILLE IL
800 PM CDT SUN JUL 23 2017

NOTE: "FAIR" INDICATES FEW OR NO CLOUDS BELOW 12,000 FEET WITH NO
SIGNIFICANT WEATHER AND/OR OBSTRUCTIONS TO VISIBILITY.

* THESE STATIONS ARE NOT UNDER NWS QUALITY CONTROL. THEY ALSO MAY NOT
  REPORT WEATHER SUCH AS PRECIPITATION OR FOG.

ILZ001-002-007-009-015-016-024-240200-
NORTHWEST ILLINOIS

CITY           SKY/WX    TMP DP  RH WIND       PRES   REMARKS
MOLINE         CLEAR     79  62  56 NW9       29.86R HX  80
STERLING*      MOCLDY    79  66  64 N7        29.85R HX  81
SAVANNA*       CLEAR     77  64  63 N9        29.86R
$$

ILZ003-004-008-010-011-017-018-240200-
NORTH CENTRAL ILLINOIS

CITY           SKY/WX    TMP DP  RH WIND       PRES   REMARKS
ROCKFORD       PTCLDY    77  69  76 W5        29.85R
FREEPORT*      CLEAR     74  63  66 NW7       29.87S
ROCHELLE*      PTCLDY    74  69  85 CALM      29.85S
DE KALB*       CLEAR     71  68  91 CALM      29.86R
PERU*          PTCLDY   N/A N/A N/A N6        29.85R
$$

ILZ005-006-012>014-019>023-240200-
NORTHEAST ILLINOIS

CITY           SKY/WX    TMP DP  RH WIND       PRES   REMARKS
CHICAGO-OHARE  MOCLDY    73  63  70 W6        29.82R
CHICAGO-MIDWAY CLOUDY    75  64  68 NW9       29.82R
AURORA         PTCLDY    71  67  87 W3        29.84R
LANSING*       CLOUDY    76  60  58 N3        29.81S
JOLIET*        PTCLDY    72  66  83 N6        29.83R
WAUKEGAN       CLOUDY    74  68  81 CALM      29.81R
DUPAGE AIRPORT PTCLDY    72  67  84 CALM      29.83R
WHEELING       PTCLDY    73  68  84 W5        29.83S
MORRIS*        PTCLDY    72  66  82 W7        29.82R
ROMEOVILLE*    CLOUDY    69  63  80 NW8       29.83R
NORTHERLY ISL    N/A     76  62  62 CALM        N/A
$$

LMZ740>746-240200-
SOUTHERN LAKE MICHIGAN

STATION/POSITION SKY/WX   TEMP    WIND        PRES    VSBY  WAVE
                          AIR SEA DIR/SP/G                  HT/PER
                          (F)     (DEG/KT/KT) (MB)    (MI)  (FT/S)
SOUTHERN BUOY              72 71   20/ 10/ 12 1009.2R         0
WILMETTE HARBOR            74 74  270/  6/  8   N/A           1
HARRISON CRIB              77     320/  8/  8   N/A
BURNHAM HARBOR             77                   N/A
CALUMET HARBOR             77      CALM  /  1 1009.1R
BURNS HARBOR               76      10/  6/  8 1010.2S
MICHIGAN CITY              75      10/  9/ 10   N/A
MICHIGAN CITY 6N           76 76   10/  6/  8   N/A           1/ 2
ST. JOSEPH                 74 75   40/  6/  8 1009.1          2/ 3
$$

ILZ025>027-034>036-040-047-049-050-058-095>099-240200-
WEST-CENTRAL ILLINOIS

CITY           SKY/WX    TMP DP  RH WIND       PRES   REMARKS
QUINCY         CLEAR     84  64  50 N10       29.84R HX  85
GALESBURG*     CLEAR     77  63  61 NW8       29.87S
MACOMB*        CLEAR     78  65  65 N9        29.87S HX  80
JACKSONVILLE*  MOCLDY    78  68  71 SW3       29.84F
PITTSFIELD*    MOCLDY    77  70  79 S5        29.85S
$$

ILZ028>032-037-038-041>044-048-051>054-059>061-240200-
CENTRAL ILLINOIS

CITY           SKY/WX    TMP DP  RH WIND       PRES   REMARKS
PONTIAC        PTCLDY    77  71  82 NE12      29.84R
BLOOMINGTON    PTCLDY    80  67  64 NW14      29.84F HX  82
DECATUR        TSTM      79  67  66 W9        29.82F HX  81
PEORIA         CLEAR     81  67  62 N6        29.84S HX  83
LACON*         CLEAR     79  67  66 NW5       29.84S HX  81
LINCOLN*       CLOUDY    85  74  70 W3        29.83S HX  93
SPRINGFIELD    MOCLDY    79  72  79 W6        29.83F HX  82
TAYLORVILLE    CLOUDY    77  75  92 W3        29.83F
$$

ILZ033-039-045-046-055>057-062-063-240200-
EAST-CENTRAL ILLINOIS

CITY           SKY/WX    TMP DP  RH WIND       PRES   REMARKS
CHAMPAIGN      CLOUDY    80  74  81 SW5       29.81F HX  85
RANTOUL*       CLOUDY    76  71  84 E5        29.82F
MATTOON        PTCLDY    82  77  84 SW3       29.82F HX  90
PARIS*         PTCLDY    78  74  88 W3        29.83F HX  81
$$

ILZ079-100>102-240200-
SOUTHWEST ILLINOIS

CITY           SKY/WX    TMP DP  RH WIND       PRES   REMARKS
ALTON          PTCLDY    81  75  83 W9        29.84F HX  86
BELLEVILLE     CLEAR     84  73  68 CALM      29.85R HX  91
CAHOKIA*       PTCLDY    85  65  51 W5        29.84R HX  86
SPARTA*        CLEAR     82  69  63 CALM      29.86R HX  86
$$

ILZ064>066-069>071-074>076-080>082-084>086-088>090-092>094-240200-
SOUTH-CENTRAL ILLINOIS

CITY           SKY/WX    TMP DP  RH WIND       PRES   REMARKS
CARBONDALE     CLEAR     81  77  88 CALM      29.85R HX  88
CAIRO*         CLEAR     84  73  70 NE3       29.84R HX  91
EFFINGHAM*     CLEAR     82  75  79 SW5       29.85S HX  87
MARION         CLEAR     81  79  94 CALM      29.86R HX  89
MT. VERNON     CLEAR     79  72  79 CALM      29.85R HX  82
CENTRALIA*     CLEAR     81  76  83 CALM      29.84R HX  87
SALEM*         CLEAR     80  74  80 CALM      29.84S HX  85
METROPOLIS*    CLEAR     82  75  79 CALM      29.85S HX  89
$$

ILZ067-068-072-073-078-083-087-091-240200-
SOUTHEAST ILLINOIS

CITY           SKY/WX    TMP DP  RH WIND       PRES   REMARKS
LAWRENCEVILLE  CLEAR     82  73  74 W3        29.83S HX  87
FLORA*         CLEAR     83  72  71 W5        29.84S HX  88
FAIRFIELD*     CLEAR     77  72  84 CALM      29.84S
HARRISBURG*    CLEAR     83  73  73 CALM      29.85R HX  89
ROBINSON*      CLEAR     77  73  89 W7        29.83F
CARMI*         PTCLDY    79  74  83 CALM      29.84R HX  82
$$

ABBREVIATIONS USED IN REMARKS
   TC - TEMPERATURE IN CELSIUS
  WCI - WIND CHILL INDEX
   HX - HEAT INDEX
  VSB - VISIBILITY
$$




USA.gov is the U.S. government's official web portal to all federal, state and local government web resources and services.